Location: Burgwalden
(48.2830°N, 10.7576°E)
Time: 02:27:41
(UTC+00:00)

CZ-2C R/B - Pass Details

Date: 26 September 2023
Orbit: 702 x 907 km, 98.1° (Epoch: 04 December)

Event Time Altitude Azimuth Distance (km) Brightness Sun altitude
Rises 03:12:19 0° 9° (N) 3,548 6.9 -19.7°
Reaches altitude 10° 03:14:50 10° 4° (N) 2,601 6.0 -19.3°
Maximum altitude 03:20:23 48° 292° (WNW) 1,168 3.6 -18.5°
Enters shadow 03:22:52 30° 238° (WSW) 1,555 4.0 -18.1°
